Time,TemperatureF,DewpointF,PressureIn,WindDirection,WindDirectionDegrees,WindSpeedMPH,WindSpeedGustMPH,Humidity,HourlyPrecipIn,Conditions,Clouds,dailyrainin,SolarRadiationWatts/m^2,SoftwareType,DateUTC
2013-12-25 00:01:00,28.6,17.6,30.23,SE,132,0.0,1.0,63,0.00,,,0.00,0,HR-IXP-WINDi_r2_v1.2,2013-12-25 05:01:00,
2013-12-25 00:06:00,28.5,17.5,30.23,SE,132,0.0,0.0,63,0.00,,,0.00,0,HR-IXP-WINDi_r2_v1.2,2013-12-25 05:06:00,
2013-12-25 00:11:00,28.4,17.1,30.23,SE,132,0.0,0.0,62,0.00,,,0.00,0,HR-IXP-WINDi_r2_v1.2,2013-12-25 05:11:00,
2013-12-25 00:16:00,28.3,17.0,30.23,SE,132,0.0,1.0,62,0.00,,,0.00,0,HR-IXP-WINDi_r2_v1.2,2013-12-25 05:16:00,
2013-12-25 00:21:00,28.2,16.5,30.24,SE,135,0.0,1.0,61,0.00,,,0.00,0,HR-IXP-WINDi_r2_v1.2,2013-12-25 05:21:00,
2013-12-25 00:26:00,28.1,16.0,30.24,SE,135,0.0,1.0,60,0.00,,,0.00,0,HR-IXP-WINDi_r2_v1.2,2013-12-25 05:26:00,
2013-12-25 00:31:00,28.0,15.2,30.24,SE,136,0.0,1.0,58,0.00,,,0.00,0,HR-IXP-WINDi_r2_v1.2,2013-12-25 05:31:00,
2013-12-25 00:37:00,27.9,14.7,30.24,SE,133,0.0,2.0,57,0.00,,,0.00,0,HR-IXP-WINDi_r2_v1.2,2013-12-25 05:37:00,
2013-12-25 00:42:00,27.8,13.8,30.24,SSW,195,0.0,5.0,55,0.00,,,0.00,0,HR-IXP-WINDi_r2_v1.2,2013-12-25 05:42:00,
2013-12-25 00:47:00,27.8,13.8,30.24,South,173,0.0,5.0,55,0.00,,,0.00,0,HR-IXP-WINDi_r2_v1.2,2013-12-25 05:47:00,
2013-12-25 00:52:00,27.7,13.7,30.25,SE,135,0.0,1.0,55,0.00,,,0.00,0,HR-IXP-WINDi_r2_v1.2,2013-12-25 05:52:00,
2013-12-25 00:58:00,27.5,13.5,30.25,ESE,117,0.0,2.0,55,0.00,,,0.00,0,HR-IXP-WINDi_r2_v1.2,2013-12-25 05:58:00,
2013-12-25 01:03:00,27.5,13.5,30.25,SE,142,0.0,2.0,55,0.00,,,0.00,0,HR-IXP-WINDi_r2_v1.2,2013-12-25 06:03:00,
2013-12-25 01:08:00,27.4,13.4,30.25,SE,142,0.0,1.0,55,0.00,,,0.00,0,HR-IXP-WINDi_r2_v1.2,2013-12-25 06:08:00,
2013-12-25 01:14:00,27.3,13.7,30.25,SSE,155,0.0,2.0,56,0.00,,,0.00,0,HR-IXP-WINDi_r2_v1.2,2013-12-25 06:14:00,
2013-12-25 01:19:00,27.2,13.6,30.25,SSE,153,1.0,2.0,56,0.00,,,0.00,0,HR-IXP-WINDi_r2_v1.2,2013-12-25 06:19:00,
2013-12-25 01:24:00,27.1,13.9,30.26,SSE,153,0.0,1.0,57,0.00,,,0.00,0,HR-IXP-WINDi_r2_v1.2,2013-12-25 06:24:00,
2013-12-25 01:29:00,27.1,14.3,30.26,West,263,1.0,2.0,58,0.00,,,0.00,0,HR-IXP-WINDi_r2_v1.2,2013-12-25 06:29:00,
2013-12-25 01:34:00,27.1,14.3,30.26,WSW,248,0.0,3.0,58,0.00,,,0.00,0,HR-IXP-WINDi_r2_v1.2,2013-12-25 06:34:00,
2013-12-25 01:39:00,27.0,14.6,30.26,SE,126,0.0,3.0,59,0.00,,,0.00,0,HR-IXP-WINDi_r2_v1.2,2013-12-25 06:39:00,
2013-12-25 01:44:00,26.9,14.5,30.27,SSE,155,0.0,1.0,59,0.00,,,0.00,0,HR-IXP-WINDi_r2_v1.2,2013-12-25 06:44:00,
2013-12-25 01:49:00,26.8,14.4,30.27,West,270,2.0,2.0,59,0.00,,,0.00,0,HR-IXP-WINDi_r2_v1.2,2013-12-25 06:49:00,
2013-12-25 01:55:00,26.7,14.7,30.27,South,173,0.0,2.0,60,0.00,,,0.00,0,HR-IXP-WINDi_r2_v1.2,2013-12-25 06:55:00,
2013-12-25 02:00:00,26.5,14.5,30.28,South,174,0.0,2.0,60,0.00,,,0.00,0,HR-IXP-WINDi_r2_v1.2,2013-12-25 07:00:00,
2013-12-25 02:05:00,26.3,14.3,30.28,South,175,0.0,1.0,60,0.00,,,0.00,0,HR-IXP-WINDi_r2_v1.2,2013-12-25 07:05:00,
2013-12-25 02:10:00,26.1,14.1,30.28,South,176,0.0,1.0,60,0.00,,,0.00,0,HR-IXP-WINDi_r2_v1.2,2013-12-25 07:10:00,
2013-12-25 02:16:00,25.8,14.2,30.29,South,169,0.0,1.0,61,0.00,,,0.00,0,HR-IXP-WINDi_r2_v1.2,2013-12-25 07:16:00,
2013-12-25 02:21:00,25.6,14.0,30.29,SE,140,0.0,2.0,61,0.00,,,0.00,0,HR-IXP-WINDi_r2_v1.2,2013-12-25 07:21:00,
2013-12-25 02:26:00,25.4,13.9,30.29,SE,128,0.0,2.0,61,0.00,,,0.00,0,HR-IXP-WINDi_r2_v1.2,2013-12-25 07:26:00,
2013-12-25 02:31:00,25.2,13.7,30.30,SE,128,0.0,2.0,61,0.00,,,0.00,0,HR-IXP-WINDi_r2_v1.2,2013-12-25 07:31:00,
2013-12-25 02:37:00,25.0,13.5,30.30,SW,227,0.0,2.0,61,0.00,,,0.00,0,HR-IXP-WINDi_r2_v1.2,2013-12-25 07:37:00,
2013-12-25 02:42:00,24.8,13.3,30.30,SW,232,0.0,2.0,61,0.00,,,0.00,0,HR-IXP-WINDi_r2_v1.2,2013-12-25 07:42:00,
2013-12-25 02:47:00,24.7,13.2,30.31,SW,232,0.0,1.0,61,0.00,,,0.00,0,HR-IXP-WINDi_r2_v1.2,2013-12-25 07:47:00,
2013-12-25 02:52:00,24.5,12.6,30.31,SW,232,0.0,1.0,60,0.00,,,0.00,0,HR-IXP-WINDi_r2_v1.2,2013-12-25 07:52:00,
2013-12-25 02:57:00,24.4,12.9,30.30,SSE,163,0.0,1.0,61,0.00,,,0.00,0,HR-IXP-WINDi_r2_v1.2,2013-12-25 07:57:00,
2013-12-25 03:03:00,24.2,12.7,30.31,SSE,163,0.0,1.0,61,0.00,,,0.00,0,HR-IXP-WINDi_r2_v1.2,2013-12-25 08:03:00,
2013-12-25 03:08:00,24.1,12.6,30.31,WSW,254,2.0,2.0,61,0.00,,,0.00,0,HR-IXP-WINDi_r2_v1.2,2013-12-25 08:08:00,
2013-12-25 03:14:00,23.9,12.4,30.31,SSE,157,0.0,2.0,61,0.00,,,0.00,0,HR-IXP-WINDi_r2_v1.2,2013-12-25 08:14:00,
2013-12-25 03:19:00,23.8,12.7,30.32,SSE,157,0.0,2.0,62,0.00,,,0.00,0,HR-IXP-WINDi_r2_v1.2,2013-12-25 08:19:00,
2013-12-25 03:24:00,23.7,12.6,30.32,SSE,156,0.0,1.0,62,0.00,,,0.00,0,HR-IXP-WINDi_r2_v1.2,2013-12-25 08:24:00,
2013-12-25 03:29:00,23.6,12.9,30.32,SSW,213,1.0,1.0,63,0.00,,,0.00,0,HR-IXP-WINDi_r2_v1.2,2013-12-25 08:29:00,
2013-12-25 03:34:00,23.5,12.8,30.32,SW,220,0.0,1.0,63,0.00,,,0.00,0,HR-IXP-WINDi_r2_v1.2,2013-12-25 08:34:00,
2013-12-25 03:39:00,23.5,12.8,30.32,SW,220,0.0,1.0,63,0.00,,,0.00,0,HR-IXP-WINDi_r2_v1.2,2013-12-25 08:39:00,
2013-12-25 03:44:00,23.4,12.7,30.33,SW,220,0.0,1.0,63,0.00,,,0.00,0,HR-IXP-WINDi_r2_v1.2,2013-12-25 08:44:00,
2013-12-25 03:49:00,23.3,12.6,30.33,SSW,202,0.0,1.0,63,0.00,,,0.00,0,HR-IXP-WINDi_r2_v1.2,2013-12-25 08:49:00,
2013-12-25 03:55:00,23.2,12.5,30.33,SSW,202,0.0,1.0,63,0.00,,,0.00,0,HR-IXP-WINDi_r2_v1.2,2013-12-25 08:55:00,
2013-12-25 04:00:00,23.1,12.4,30.33,South,190,0.0,1.0,63,0.00,,,0.00,0,HR-IXP-WINDi_r2_v1.2,2013-12-25 09:00:00,
2013-12-25 04:05:00,23.0,12.0,30.33,WSW,249,0.0,1.0,62,0.00,,,0.00,0,HR-IXP-WINDi_r2_v1.2,2013-12-25 09:05:00,
2013-12-25 04:10:00,22.9,11.9,30.33,WSW,248,0.0,1.0,62,0.00,,,0.00,0,HR-IXP-WINDi_r2_v1.2,2013-12-25 09:10:00,
2013-12-25 04:16:00,22.9,11.5,30.33,South,190,0.0,1.0,61,0.00,,,0.00,0,HR-IXP-WINDi_r2_v1.2,2013-12-25 09:16:00,
2013-12-25 04:21:00,22.8,11.4,30.34,South,190,0.0,1.0,61,0.00,,,0.00,0,HR-IXP-WINDi_r2_v1.2,2013-12-25 09:21:00,
2013-12-25 04:26:00,22.7,10.9,30.34,West,260,0.0,1.0,60,0.00,,,0.00,0,HR-IXP-WINDi_r2_v1.2,2013-12-25 09:26:00,
2013-12-25 04:31:00,22.6,10.9,30.34,West,269,0.0,3.0,60,0.00,,,0.00,0,HR-IXP-WINDi_r2_v1.2,2013-12-25 09:31:00,
2013-12-25 04:36:00,22.5,10.8,30.35,SE,130,0.0,3.0,60,0.00,,,0.00,0,HR-IXP-WINDi_r2_v1.2,2013-12-25 09:36:00,
2013-12-25 04:41:00,22.5,10.0,30.35,SE,138,0.0,1.0,58,0.00,,,0.00,0,HR-IXP-WINDi_r2_v1.2,2013-12-25 09:41:00,
2013-12-25 04:47:00,22.4,9.9,30.36,SE,138,0.0,1.0,58,0.00,,,0.00,0,HR-IXP-WINDi_r2_v1.2,2013-12-25 09:47:00,
2013-12-25 04:52:00,22.4,9.9,30.36,SE,138,0.0,1.0,58,0.00,,,0.00,0,HR-IXP-WINDi_r2_v1.2,2013-12-25 09:52:00,
2013-12-25 04:58:00,22.3,10.2,30.36,SE,138,0.0,1.0,59,0.00,,,0.00,0,HR-IXP-WINDi_r2_v1.2,2013-12-25 09:58:00,
2013-12-25 05:03:00,22.2,10.1,30.36,SE,138,0.0,1.0,59,0.00,,,0.00,0,HR-IXP-WINDi_r2_v1.2,2013-12-25 10:03:00,
2013-12-25 05:08:00,22.1,10.4,30.37,SE,140,0.0,1.0,60,0.00,,,0.00,0,HR-IXP-WINDi_r2_v1.2,2013-12-25 10:08:00,
2013-12-25 05:13:00,22.0,10.3,30.37,SE,140,0.0,1.0,60,0.00,,,0.00,0,HR-IXP-WINDi_r2_v1.2,2013-12-25 10:13:00,
2013-12-25 05:18:00,21.8,10.1,30.38,SE,140,0.0,1.0,60,0.00,,,0.00,0,HR-IXP-WINDi_r2_v1.2,2013-12-25 10:18:00,
2013-12-25 05:24:00,21.6,9.9,30.38,SSW,192,0.0,2.0,60,0.00,,,0.00,0,HR-IXP-WINDi_r2_v1.2,2013-12-25 10:24:00,
2013-12-25 05:29:00,21.3,10.0,30.38,SSW,198,0.0,2.0,61,0.00,,,0.00,0,HR-IXP-WINDi_r2_v1.2,2013-12-25 10:29:00,
2013-12-25 05:34:00,21.2,9.9,30.39,SSW,198,0.0,1.0,61,0.00,,,0.00,0,HR-IXP-WINDi_r2_v1.2,2013-12-25 10:34:00,
2013-12-25 05:39:00,20.9,9.6,30.39,WSW,240,0.0,2.0,61,0.00,,,0.00,0,HR-IXP-WINDi_r2_v1.2,2013-12-25 10:39:00,
2013-12-25 05:44:00,20.7,9.1,30.40,SSW,210,0.0,2.0,60,0.00,,,0.00,0,HR-IXP-WINDi_r2_v1.2,2013-12-25 10:44:00,
2013-12-25 05:50:00,20.6,9.0,30.40,SSW,198,0.0,1.0,60,0.00,,,0.00,0,HR-IXP-WINDi_r2_v1.2,2013-12-25 10:50:00,
2013-12-25 05:55:00,20.4,8.4,30.41,SSW,194,0.0,0.0,59,0.00,,,0.00,0,HR-IXP-WINDi_r2_v1.2,2013-12-25 10:55:00,
2013-12-25 06:00:00,20.1,7.8,30.41,SE,144,0.0,2.0,58,0.00,,,0.00,0,HR-IXP-WINDi_r2_v1.2,2013-12-25 11:00:00,
2013-12-25 06:05:00,19.9,7.6,30.41,West,261,0.0,2.0,58,0.00,,,0.00,0,HR-IXP-WINDi_r2_v1.2,2013-12-25 11:05:00,
2013-12-25 06:10:00,19.7,7.0,30.42,SW,219,0.0,2.0,57,0.00,,,0.00,0,HR-IXP-WINDi_r2_v1.2,2013-12-25 11:10:00,
2013-12-25 06:16:00,19.4,6.3,30.42,WSW,249,0.0,4.0,56,0.00,,,0.00,0,HR-IXP-WINDi_r2_v1.2,2013-12-25 11:16:00,
2013-12-25 06:21:00,19.2,5.7,30.43,WSW,238,0.0,4.0,55,0.00,,,0.00,0,HR-IXP-WINDi_r2_v1.2,2013-12-25 11:21:00,
2013-12-25 06:26:00,19.0,5.2,30.43,West,281,0.0,3.0,54,0.00,,,0.00,0,HR-IXP-WINDi_r2_v1.2,2013-12-25 11:26:00,
2013-12-25 06:32:00,18.9,5.1,30.43,SSW,198,0.0,3.0,54,0.00,,,0.00,0,HR-IXP-WINDi_r2_v1.2,2013-12-25 11:32:00,
2013-12-25 06:37:00,18.7,4.9,30.44,SSE,161,0.0,1.0,54,0.00,,,0.00,0,HR-IXP-WINDi_r2_v1.2,2013-12-25 11:37:00,
2013-12-25 06:42:00,18.5,5.1,30.44,West,265,0.0,2.0,55,0.00,,,0.00,0,HR-IXP-WINDi_r2_v1.2,2013-12-25 11:42:00,
2013-12-25 06:47:00,18.2,4.8,30.44,WSW,240,0.0,2.0,55,0.00,,,0.00,0,HR-IXP-WINDi_r2_v1.2,2013-12-25 11:47:00,
2013-12-25 06:52:00,18.1,4.7,30.45,WSW,247,0.0,2.0,55,0.00,,,0.00,0,HR-IXP-WINDi_r2_v1.2,2013-12-25 11:52:00,
2013-12-25 06:57:00,18.0,4.6,30.45,WSW,247,0.0,2.0,55,0.00,,,0.00,0,HR-IXP-WINDi_r2_v1.2,2013-12-25 11:57:00,
2013-12-25 07:03:00,17.9,4.9,30.45,WSW,247,0.0,1.0,56,0.00,,,0.00,0,HR-IXP-WINDi_r2_v1.2,2013-12-25 12:03:00,
2013-12-25 07:08:00,17.8,4.8,30.46,WSW,247,0.0,1.0,56,0.00,,,0.00,0,HR-IXP-WINDi_r2_v1.2,2013-12-25 12:08:00,
2013-12-25 07:13:00,17.7,5.1,30.46,WSW,247,0.0,2.0,57,0.00,,,0.00,0,HR-IXP-WINDi_r2_v1.2,2013-12-25 12:13:00,
2013-12-25 07:18:00,17.6,5.0,30.45,WSW,247,0.0,2.0,57,0.00,,,0.00,0,HR-IXP-WINDi_r2_v1.2,2013-12-25 12:18:00,
2013-12-25 07:23:00,17.5,4.9,30.46,South,182,0.0,1.0,57,0.00,,,0.00,0,HR-IXP-WINDi_r2_v1.2,2013-12-25 12:23:00,
2013-12-25 07:28:00,17.4,5.2,30.47,SSW,198,0.0,2.0,58,0.00,,,0.00,5,HR-IXP-WINDi_r2_v1.2,2013-12-25 12:28:00,
2013-12-25 07:34:00,17.3,5.1,30.47,WSW,243,0.0,2.0,58,0.00,,,0.00,5,HR-IXP-WINDi_r2_v1.2,2013-12-25 12:34:00,
2013-12-25 07:39:00,17.2,5.0,30.47,WSW,243,0.0,2.0,58,0.00,,,0.00,7,HR-IXP-WINDi_r2_v1.2,2013-12-25 12:39:00,
2013-12-25 07:44:00,17.1,4.9,30.47,WSW,243,0.0,1.0,58,0.00,,,0.00,9,HR-IXP-WINDi_r2_v1.2,2013-12-25 12:44:00,
2013-12-25 07:49:00,17.1,5.3,30.47,WSW,243,0.0,1.0,59,0.00,,,0.00,9,HR-IXP-WINDi_r2_v1.2,2013-12-25 12:49:00,
2013-12-25 07:54:00,17.0,5.2,30.47,WSW,243,0.0,1.0,59,0.00,,,0.00,11,HR-IXP-WINDi_r2_v1.2,2013-12-25 12:54:00,
2013-12-25 07:59:00,17.0,5.2,30.48,SSW,193,0.0,2.0,59,0.00,,,0.00,12,HR-IXP-WINDi_r2_v1.2,2013-12-25 12:59:00,
2013-12-25 08:05:00,16.9,5.1,30.48,SSE,167,0.0,2.0,59,0.00,,,0.00,16,HR-IXP-WINDi_r2_v1.2,2013-12-25 13:05:00,
2013-12-25 08:10:00,16.9,5.1,30.49,South,171,0.0,1.0,59,0.00,,,0.00,18,HR-IXP-WINDi_r2_v1.2,2013-12-25 13:10:00,
2013-12-25 08:15:00,17.0,5.2,30.48,ESE,114,0.0,1.0,59,0.00,,,0.00,21,HR-IXP-WINDi_r2_v1.2,2013-12-25 13:15:00,
2013-12-25 08:20:00,17.0,5.2,30.49,ESE,114,0.0,1.0,59,0.00,,,0.00,21,HR-IXP-WINDi_r2_v1.2,2013-12-25 13:20:00,
2013-12-25 08:26:00,17.0,5.2,30.48,ESE,114,0.0,0.0,59,0.00,,,0.00,23,HR-IXP-WINDi_r2_v1.2,2013-12-25 13:26:00,
2013-12-25 08:31:00,17.2,5.0,30.49,ESE,114,0.0,1.0,58,0.00,,,0.00,25,HR-IXP-WINDi_r2_v1.2,2013-12-25 13:31:00,
2013-12-25 08:36:00,17.4,4.8,30.49,ESE,115,0.0,2.0,57,0.00,,,0.00,26,HR-IXP-WINDi_r2_v1.2,2013-12-25 13:36:00,
2013-12-25 08:41:00,17.6,5.0,30.49,ESE,119,0.0,3.0,57,0.00,,,0.00,26,HR-IXP-WINDi_r2_v1.2,2013-12-25 13:41:00,
2013-12-25 08:46:00,17.9,5.3,30.50,ESE,119,0.0,3.0,57,0.00,,,0.00,28,HR-IXP-WINDi_r2_v1.2,2013-12-25 13:46:00,
2013-12-25 08:52:00,18.2,5.6,30.49,ESE,119,0.0,2.0,57,0.00,,,0.00,28,HR-IXP-WINDi_r2_v1.2,2013-12-25 13:52:00,
2013-12-25 08:57:00,18.5,5.1,30.50,ESE,115,0.0,2.0,55,0.00,,,0.00,30,HR-IXP-WINDi_r2_v1.2,2013-12-25 13:57:00,
2013-12-25 09:02:00,18.9,5.5,30.50,South,184,0.0,1.0,55,0.00,,,0.00,32,HR-IXP-WINDi_r2_v1.2,2013-12-25 14:02:00,
2013-12-25 09:07:00,19.3,5.4,30.50,SSE,165,0.0,2.0,54,0.00,,,0.00,32,HR-IXP-WINDi_r2_v1.2,2013-12-25 14:07:00,
2013-12-25 09:12:00,19.6,5.7,30.51,SSE,165,0.0,2.0,54,0.00,,,0.00,33,HR-IXP-WINDi_r2_v1.2,2013-12-25 14:12:00,
2013-12-25 09:18:00,20.0,5.7,30.51,SSE,165,0.0,1.0,53,0.00,,,0.00,33,HR-IXP-WINDi_r2_v1.2,2013-12-25 14:18:00,
2013-12-25 09:23:00,20.4,6.1,30.52,SSW,207,0.0,2.0,53,0.00,,,0.00,49,HR-IXP-WINDi_r2_v1.2,2013-12-25 14:23:00,
2013-12-25 09:28:00,20.8,6.0,30.52,SW,219,0.0,2.0,52,0.00,,,0.00,79,HR-IXP-WINDi_r2_v1.2,2013-12-25 14:28:00,
2013-12-25 09:34:00,21.1,6.3,30.51,SW,219,0.0,2.0,52,0.00,,,0.00,374,HR-IXP-WINDi_r2_v1.2,2013-12-25 14:34:00,
2013-12-25 09:39:00,21.5,6.2,30.51,WNW,290,0.0,4.0,51,0.00,,,0.00,399,HR-IXP-WINDi_r2_v1.2,2013-12-25 14:39:00,
2013-12-25 09:44:00,21.8,6.1,30.52,SW,227,0.0,4.0,50,0.00,,,0.00,429,HR-IXP-WINDi_r2_v1.2,2013-12-25 14:44:00,
2013-12-25 09:49:00,22.2,6.0,30.52,SSW,206,0.0,2.0,49,0.00,,,0.00,441,HR-IXP-WINDi_r2_v1.2,2013-12-25 14:49:00,
2013-12-25 09:54:00,22.5,6.3,30.52,SW,215,1.0,2.0,49,0.00,,,0.00,454,HR-IXP-WINDi_r2_v1.2,2013-12-25 14:54:00,
2013-12-25 09:59:00,22.9,6.7,30.53,WSW,246,0.0,3.0,49,0.00,,,0.00,466,HR-IXP-WINDi_r2_v1.2,2013-12-25 14:59:00,
2013-12-25 10:04:00,23.6,6.4,30.52,SE,132,0.0,3.0,47,0.00,,,0.00,476,HR-IXP-WINDi_r2_v1.2,2013-12-25 15:04:00,
2013-12-25 10:09:00,24.0,6.7,30.52,SE,126,0.0,1.0,47,0.00,,,0.00,485,HR-IXP-WINDi_r2_v1.2,2013-12-25 15:09:00,
2013-12-25 10:15:00,24.5,6.7,30.52,SE,128,0.0,1.0,46,0.00,,,0.00,499,HR-IXP-WINDi_r2_v1.2,2013-12-25 15:15:00,
2013-12-25 10:20:00,25.1,6.8,30.52,West,275,1.0,2.0,45,0.00,,,0.00,506,HR-IXP-WINDi_r2_v1.2,2013-12-25 15:20:00,
2013-12-25 10:25:00,25.9,7.0,30.52,West,275,0.0,2.0,44,0.00,,,0.00,515,HR-IXP-WINDi_r2_v1.2,2013-12-25 15:25:00,
2013-12-25 10:30:00,26.5,6.6,30.52,West,277,0.0,3.0,42,0.00,,,0.00,522,HR-IXP-WINDi_r2_v1.2,2013-12-25 15:30:00,
2013-12-25 10:35:00,26.8,6.8,30.52,West,277,1.0,3.0,42,0.00,,,0.00,533,HR-IXP-WINDi_r2_v1.2,2013-12-25 15:35:00,
2013-12-25 10:40:00,27.0,7.0,30.51,West,277,0.0,2.0,42,0.00,,,0.00,538,HR-IXP-WINDi_r2_v1.2,2013-12-25 15:40:00,
2013-12-25 10:46:00,27.0,6.5,30.52,West,275,0.0,2.0,41,0.00,,,0.00,543,HR-IXP-WINDi_r2_v1.2,2013-12-25 15:46:00,
2013-12-25 10:51:00,27.3,6.2,30.51,West,277,0.0,1.0,40,0.00,,,0.00,550,HR-IXP-WINDi_r2_v1.2,2013-12-25 15:51:00,
2013-12-25 10:56:00,27.4,6.3,30.51,West,277,0.0,1.0,40,0.00,,,0.00,555,HR-IXP-WINDi_r2_v1.2,2013-12-25 15:56:00,
2013-12-25 11:01:00,27.5,6.4,30.51,West,277,0.0,2.0,40,0.00,,,0.00,561,HR-IXP-WINDi_r2_v1.2,2013-12-25 16:01:00,
2013-12-25 11:06:00,27.6,6.5,30.52,West,277,0.0,2.0,40,0.00,,,0.00,566,HR-IXP-WINDi_r2_v1.2,2013-12-25 16:06:00,
2013-12-25 11:11:00,27.7,5.5,30.51,West,277,0.0,1.0,38,0.00,,,0.00,571,HR-IXP-WINDi_r2_v1.2,2013-12-25 16:11:00,
2013-12-25 11:17:00,27.6,5.9,30.51,West,277,0.0,1.0,39,0.00,,,0.00,577,HR-IXP-WINDi_r2_v1.2,2013-12-25 16:17:00,
2013-12-25 11:22:00,28.2,6.5,30.51,West,277,0.0,1.0,39,0.00,,,0.00,584,HR-IXP-WINDi_r2_v1.2,2013-12-25 16:22:00,
2013-12-25 11:27:00,28.4,6.1,30.50,West,277,0.0,1.0,38,0.00,,,0.00,587,HR-IXP-WINDi_r2_v1.2,2013-12-25 16:27:00,
2013-12-25 11:32:00,28.5,5.6,30.50,West,277,0.0,1.0,37,0.00,,,0.00,592,HR-IXP-WINDi_r2_v1.2,2013-12-25 16:32:00,
2013-12-25 11:37:00,28.5,6.2,30.50,West,277,0.0,1.0,38,0.00,,,0.00,591,HR-IXP-WINDi_r2_v1.2,2013-12-25 16:37:00,
2013-12-25 11:43:00,28.4,6.1,30.50,West,277,0.0,2.0,38,0.00,,,0.00,592,HR-IXP-WINDi_r2_v1.2,2013-12-25 16:43:00,
2013-12-25 11:48:00,28.9,6.5,30.50,West,277,0.0,2.0,38,0.00,,,0.00,596,HR-IXP-WINDi_r2_v1.2,2013-12-25 16:48:00,
2013-12-25 11:53:00,29.0,6.0,30.50,West,277,0.0,2.0,37,0.00,,,0.00,596,HR-IXP-WINDi_r2_v1.2,2013-12-25 16:53:00,
2013-12-25 11:58:00,29.0,5.4,30.50,West,277,0.0,1.0,36,0.00,,,0.00,598,HR-IXP-WINDi_r2_v1.2,2013-12-25 16:58:00,
2013-12-25 12:03:00,29.2,6.2,30.50,West,277,0.0,2.0,37,0.00,,,0.00,598,HR-IXP-WINDi_r2_v1.2,2013-12-25 17:03:00,
2013-12-25 12:08:00,29.2,6.2,30.51,West,277,0.0,2.0,37,0.00,,,0.00,596,HR-IXP-WINDi_r2_v1.2,2013-12-25 17:08:00,
2013-12-25 12:14:00,28.9,5.9,30.51,SE,141,0.0,2.0,37,0.00,,,0.00,596,HR-IXP-WINDi_r2_v1.2,2013-12-25 17:14:00,
2013-12-25 12:19:00,29.4,5.8,30.51,SE,141,0.0,1.0,36,0.00,,,0.00,598,HR-IXP-WINDi_r2_v1.2,2013-12-25 17:19:00,
2013-12-25 12:24:00,29.2,6.2,30.50,SE,142,0.0,1.0,37,0.00,,,0.00,592,HR-IXP-WINDi_r2_v1.2,2013-12-25 17:24:00,
2013-12-25 12:29:00,29.7,6.1,30.51,South,175,0.0,1.0,36,0.00,,,0.00,589,HR-IXP-WINDi_r2_v1.2,2013-12-25 17:29:00,
2013-12-25 12:35:00,29.8,5.5,30.51,South,175,0.0,1.0,35,0.00,,,0.00,584,HR-IXP-WINDi_r2_v1.2,2013-12-25 17:35:00,
2013-12-25 12:40:00,29.8,6.2,30.51,South,175,0.0,1.0,36,0.00,,,0.00,584,HR-IXP-WINDi_r2_v1.2,2013-12-25 17:40:00,
2013-12-25 12:45:00,30.2,6.5,30.51,South,175,0.0,1.0,36,0.00,,,0.00,577,HR-IXP-WINDi_r2_v1.2,2013-12-25 17:45:00,
2013-12-25 12:50:00,30.4,7.3,30.51,South,175,0.0,1.0,37,0.00,,,0.00,570,HR-IXP-WINDi_r2_v1.2,2013-12-25 17:50:00,
2013-12-25 12:56:00,29.9,5.6,30.51,South,175,0.0,1.0,35,0.00,,,0.00,568,HR-IXP-WINDi_r2_v1.2,2013-12-25 17:56:00,
2013-12-25 13:01:00,30.0,6.3,30.51,South,175,0.0,1.0,36,0.00,,,0.00,559,HR-IXP-WINDi_r2_v1.2,2013-12-25 18:01:00,
2013-12-25 13:06:00,30.6,7.5,30.51,SSE,168,0.0,1.0,37,0.00,,,0.00,548,HR-IXP-WINDi_r2_v1.2,2013-12-25 18:06:00,
2013-12-25 13:11:00,30.9,6.5,30.51,SSE,168,0.0,1.0,35,0.00,,,0.00,543,HR-IXP-WINDi_r2_v1.2,2013-12-25 18:11:00,
2013-12-25 13:16:00,30.5,6.2,30.51,SSE,168,0.0,1.0,35,0.00,,,0.00,538,HR-IXP-WINDi_r2_v1.2,2013-12-25 18:16:00,
2013-12-25 13:21:00,30.0,6.3,30.51,SSE,168,0.0,1.0,36,0.00,,,0.00,531,HR-IXP-WINDi_r2_v1.2,2013-12-25 18:21:00,
2013-12-25 13:26:00,29.8,6.2,30.51,SSE,168,0.0,1.0,36,0.00,,,0.00,519,HR-IXP-WINDi_r2_v1.2,2013-12-25 18:26:00,
2013-12-25 13:31:00,29.9,6.8,30.50,SSE,168,0.0,1.0,37,0.00,,,0.00,510,HR-IXP-WINDi_r2_v1.2,2013-12-25 18:31:00,
2013-12-25 13:37:00,30.1,6.4,30.50,SSE,168,0.0,1.0,36,0.00,,,0.00,499,HR-IXP-WINDi_r2_v1.2,2013-12-25 18:37:00,
2013-12-25 13:42:00,30.3,7.2,30.51,SSE,168,0.0,1.0,37,0.00,,,0.00,483,HR-IXP-WINDi_r2_v1.2,2013-12-25 18:42:00,
2013-12-25 13:47:00,30.7,7.0,30.51,SSE,168,0.0,1.0,36,0.00,,,0.00,473,HR-IXP-WINDi_r2_v1.2,2013-12-25 18:47:00,
2013-12-25 13:53:00,31.1,7.3,30.51,SSE,168,0.0,1.0,36,0.00,,,0.00,462,HR-IXP-WINDi_r2_v1.2,2013-12-25 18:53:00,
2013-12-25 13:58:00,31.5,7.7,30.51,SSE,168,0.0,1.0,36,0.00,,,0.00,452,HR-IXP-WINDi_r2_v1.2,2013-12-25 18:58:00,
2013-12-25 14:05:00,31.4,5.7,30.51,SSE,168,0.0,1.0,33,0.00,,,0.00,431,HR-IXP-WINDi_r2_v1.2,2013-12-25 19:05:00,
2013-12-25 14:16:00,30.3,6.6,30.51,SSW,205,0.0,1.0,36,0.00,,,0.00,403,HR-IXP-WINDi_r2_v1.2,2013-12-25 19:16:00,
2013-12-25 14:22:00,30.5,6.8,30.52,SSW,205,0.0,1.0,36,0.00,,,0.00,381,HR-IXP-WINDi_r2_v1.2,2013-12-25 19:22:00,
2013-12-25 14:29:00,30.7,5.7,30.53,SSW,205,0.0,0.0,34,0.00,,,0.00,345,HR-IXP-WINDi_r2_v1.2,2013-12-25 19:29:00,
2013-12-25 14:38:00,31.4,6.3,30.53,SSW,205,0.0,0.0,34,0.00,,,0.00,229,HR-IXP-WINDi_r2_v1.2,2013-12-25 19:38:00,
2013-12-25 14:43:00,31.2,6.8,30.53,SSW,205,0.0,0.0,35,0.00,,,0.00,213,HR-IXP-WINDi_r2_v1.2,2013-12-25 19:43:00,
2013-12-25 14:48:00,30.8,6.4,30.52,SSW,205,0.0,1.0,35,0.00,,,0.00,192,HR-IXP-WINDi_r2_v1.2,2013-12-25 19:48:00,
2013-12-25 14:53:00,30.5,6.2,30.53,SSW,205,0.0,1.0,35,0.00,,,0.00,139,HR-IXP-WINDi_r2_v1.2,2013-12-25 19:53:00,
2013-12-25 14:58:00,30.4,6.1,30.53,SSW,205,0.0,0.0,35,0.00,,,0.00,155,HR-IXP-WINDi_r2_v1.2,2013-12-25 19:58:00,
2013-12-25 15:03:00,29.6,5.4,30.53,SSW,205,0.0,0.0,35,0.00,,,0.00,79,HR-IXP-WINDi_r2_v1.2,2013-12-25 20:03:00,
2013-12-25 15:08:00,29.0,6.0,30.53,SSW,205,0.0,0.0,37,0.00,,,0.00,46,HR-IXP-WINDi_r2_v1.2,2013-12-25 20:08:00,
2013-12-25 15:14:00,28.6,5.7,30.54,SSW,205,0.0,0.0,37,0.00,,,0.00,37,HR-IXP-WINDi_r2_v1.2,2013-12-25 20:14:00,
2013-12-25 15:24:00,27.8,5.5,30.54,SSW,205,0.0,0.0,38,0.00,,,0.00,21,HR-IXP-WINDi_r2_v1.2,2013-12-25 20:24:00,
2013-12-25 15:29:00,27.1,4.9,30.54,SSW,205,0.0,0.0,38,0.00,,,0.00,16,HR-IXP-WINDi_r2_v1.2,2013-12-25 20:29:00,
2013-12-25 15:34:00,26.8,5.8,30.54,SSW,205,0.0,0.0,40,0.00,,,0.00,18,HR-IXP-WINDi_r2_v1.2,2013-12-25 20:34:00,
2013-12-25 15:40:00,26.3,5.3,30.55,SSW,205,0.0,0.0,40,0.00,,,0.00,16,HR-IXP-WINDi_r2_v1.2,2013-12-25 20:40:00,
2013-12-25 15:45:00,26.3,5.9,30.54,SSW,205,0.0,0.0,41,0.00,,,0.00,12,HR-IXP-WINDi_r2_v1.2,2013-12-25 20:45:00,
2013-12-25 15:50:00,26.2,6.3,30.55,SSW,205,0.0,0.0,42,0.00,,,0.00,11,HR-IXP-WINDi_r2_v1.2,2013-12-25 20:50:00,
2013-12-25 15:55:00,26.2,6.8,30.56,SSW,205,0.0,0.0,43,0.00,,,0.00,5,HR-IXP-WINDi_r2_v1.2,2013-12-25 20:55:00,
2013-12-25 16:00:00,25.9,6.0,30.56,SSW,205,0.0,0.0,42,0.00,,,0.00,5,HR-IXP-WINDi_r2_v1.2,2013-12-25 21:00:00,
2013-12-25 16:05:00,25.7,5.8,30.55,SSW,205,0.0,0.0,42,0.00,,,0.00,0,HR-IXP-WINDi_r2_v1.2,2013-12-25 21:05:00,
2013-12-25 16:11:00,25.6,5.7,30.56,SSW,205,0.0,0.0,42,0.00,,,0.00,0,HR-IXP-WINDi_r2_v1.2,2013-12-25 21:11:00,
2013-12-25 16:16:00,25.5,6.2,30.55,SSW,205,0.0,0.0,43,0.00,,,0.00,0,HR-IXP-WINDi_r2_v1.2,2013-12-25 21:16:00,
2013-12-25 16:21:00,25.4,5.6,30.55,SSW,205,0.0,0.0,42,0.00,,,0.00,0,HR-IXP-WINDi_r2_v1.2,2013-12-25 21:21:00,
2013-12-25 16:26:00,25.3,5.5,30.56,SSW,205,0.0,0.0,42,0.00,,,0.00,0,HR-IXP-WINDi_r2_v1.2,2013-12-25 21:26:00,
2013-12-25 16:37:00,25.1,5.8,30.55,SSW,205,0.0,0.0,43,0.00,,,0.00,0,HR-IXP-WINDi_r2_v1.2,2013-12-25 21:37:00,
2013-12-25 16:42:00,24.9,6.1,30.56,SSW,205,0.0,0.0,44,0.00,,,0.00,0,HR-IXP-WINDi_r2_v1.2,2013-12-25 21:42:00,
2013-12-25 16:47:00,24.9,6.1,30.56,SSW,205,0.0,0.0,44,0.00,,,0.00,0,HR-IXP-WINDi_r2_v1.2,2013-12-25 21:47:00,
2013-12-25 16:53:00,24.8,6.5,30.56,SSW,205,0.0,0.0,45,0.00,,,0.00,0,HR-IXP-WINDi_r2_v1.2,2013-12-25 21:53:00,
2013-12-25 16:58:00,24.8,6.5,30.56,SSW,205,0.0,0.0,45,0.00,,,0.00,0,HR-IXP-WINDi_r2_v1.2,2013-12-25 21:58:00,
2013-12-25 17:03:00,24.7,6.4,30.56,SSW,205,0.0,0.0,45,0.00,,,0.00,0,HR-IXP-WINDi_r2_v1.2,2013-12-25 22:03:00,
2013-12-25 17:08:00,24.6,6.3,30.57,SSW,205,0.0,0.0,45,0.00,,,0.00,0,HR-IXP-WINDi_r2_v1.2,2013-12-25 22:08:00,
2013-12-25 17:16:00,24.6,6.3,30.57,SSW,205,0.0,0.0,45,0.00,,,0.00,0,HR-IXP-WINDi_r2_v1.2,2013-12-25 22:16:00,
2013-12-25 17:21:00,24.5,6.3,30.57,SSW,205,0.0,0.0,45,0.00,,,0.00,0,HR-IXP-WINDi_r2_v1.2,2013-12-25 22:21:00,
2013-12-25 17:26:00,24.5,6.3,30.57,SSW,205,0.0,0.0,45,0.00,,,0.00,0,HR-IXP-WINDi_r2_v1.2,2013-12-25 22:26:00,
2013-12-25 17:31:00,24.5,6.7,30.57,SSW,205,0.0,0.0,46,0.00,,,0.00,0,HR-IXP-WINDi_r2_v1.2,2013-12-25 22:31:00,
2013-12-25 17:37:00,24.4,6.6,30.57,SSW,205,0.0,0.0,46,0.00,,,0.00,0,HR-IXP-WINDi_r2_v1.2,2013-12-25 22:37:00,
2013-12-25 17:42:00,24.3,6.1,30.57,SSW,205,0.0,0.0,45,0.00,,,0.00,0,HR-IXP-WINDi_r2_v1.2,2013-12-25 22:42:00,
2013-12-25 17:47:00,24.2,6.0,30.57,SSW,205,0.0,0.0,45,0.00,,,0.00,0,HR-IXP-WINDi_r2_v1.2,2013-12-25 22:47:00,
2013-12-25 17:52:00,24.2,6.0,30.57,SSW,205,0.0,0.0,45,0.00,,,0.00,0,HR-IXP-WINDi_r2_v1.2,2013-12-25 22:52:00,
2013-12-25 17:57:00,24.1,5.9,30.57,SSW,205,0.0,0.0,45,0.00,,,0.00,0,HR-IXP-WINDi_r2_v1.2,2013-12-25 22:57:00,
2013-12-25 18:02:00,24.1,5.9,30.57,SSW,205,0.0,0.0,45,0.00,,,0.00,0,HR-IXP-WINDi_r2_v1.2,2013-12-25 23:02:00,
2013-12-25 18:08:00,24.0,5.8,30.57,SSW,205,0.0,0.0,45,0.00,,,0.00,0,HR-IXP-WINDi_r2_v1.2,2013-12-25 23:08:00,
2013-12-25 18:13:00,23.9,5.7,30.57,SSW,205,0.0,0.0,45,0.00,,,0.00,0,HR-IXP-WINDi_r2_v1.2,2013-12-25 23:13:00,
2013-12-25 18:18:00,23.9,5.7,30.57,SSW,205,0.0,0.0,45,0.00,,,0.00,0,HR-IXP-WINDi_r2_v1.2,2013-12-25 23:18:00,
2013-12-25 18:23:00,23.9,5.7,30.57,SSW,205,0.0,0.0,45,0.00,,,0.00,0,HR-IXP-WINDi_r2_v1.2,2013-12-25 23:23:00,
2013-12-25 18:28:00,23.8,5.6,30.57,SSW,205,0.0,0.0,45,0.00,,,0.00,0,HR-IXP-WINDi_r2_v1.2,2013-12-25 23:28:00,
2013-12-25 18:34:00,23.8,6.1,30.57,SSW,205,0.0,0.0,46,0.00,,,0.00,0,HR-IXP-WINDi_r2_v1.2,2013-12-25 23:34:00,
2013-12-25 18:39:00,23.7,6.0,30.57,SSW,205,0.0,0.0,46,0.00,,,0.00,0,HR-IXP-WINDi_r2_v1.2,2013-12-25 23:39:00,
2013-12-25 18:44:00,23.6,5.9,30.58,SSW,205,0.0,0.0,46,0.00,,,0.00,0,HR-IXP-WINDi_r2_v1.2,2013-12-25 23:44:00,
2013-12-25 18:49:00,23.6,5.9,30.58,SSW,205,0.0,0.0,46,0.00,,,0.00,0,HR-IXP-WINDi_r2_v1.2,2013-12-25 23:49:00,
2013-12-25 18:54:00,23.5,5.8,30.58,SSW,205,0.0,0.0,46,0.00,,,0.00,0,HR-IXP-WINDi_r2_v1.2,2013-12-25 23:54:00,
2013-12-25 18:59:00,23.4,5.3,30.58,SSW,205,0.0,1.0,45,0.00,,,0.00,0,HR-IXP-WINDi_r2_v1.2,2013-12-25 23:59:00,
2013-12-25 19:04:00,23.3,5.6,30.57,SSW,205,0.0,1.0,46,0.00,,,0.00,0,HR-IXP-WINDi_r2_v1.2,2013-12-26 00:04:00,
2013-12-25 19:09:00,23.2,6.0,30.57,SSW,205,0.0,1.0,47,0.00,,,0.00,0,HR-IXP-WINDi_r2_v1.2,2013-12-26 00:09:00,
2013-12-25 19:14:00,23.1,6.4,30.57,SSW,205,0.0,1.0,48,0.00,,,0.00,0,HR-IXP-WINDi_r2_v1.2,2013-12-26 00:14:00,
2013-12-25 19:20:00,23.0,6.7,30.57,SSW,205,0.0,0.0,49,0.00,,,0.00,0,HR-IXP-WINDi_r2_v1.2,2013-12-26 00:20:00,
2013-12-25 19:25:00,22.8,6.6,30.57,SSW,205,0.0,1.0,49,0.00,,,0.00,0,HR-IXP-WINDi_r2_v1.2,2013-12-26 00:25:00,
2013-12-25 19:30:00,22.7,6.9,30.57,SSW,205,0.0,1.0,50,0.00,,,0.00,0,HR-IXP-WINDi_r2_v1.2,2013-12-26 00:30:00,
2013-12-25 19:36:00,22.6,6.8,30.58,SSW,205,0.0,1.0,50,0.00,,,0.00,0,HR-IXP-WINDi_r2_v1.2,2013-12-26 00:36:00,
2013-12-25 19:42:00,22.5,7.2,30.57,SSW,205,0.0,1.0,51,0.00,,,0.00,0,HR-IXP-WINDi_r2_v1.2,2013-12-26 00:42:00,
2013-12-25 19:47:00,22.4,7.1,30.57,SSW,205,0.0,0.0,51,0.00,,,0.00,0,HR-IXP-WINDi_r2_v1.2,2013-12-26 00:47:00,
2013-12-25 19:52:00,22.3,7.0,30.57,SSW,205,0.0,0.0,51,0.00,,,0.00,0,HR-IXP-WINDi_r2_v1.2,2013-12-26 00:52:00,
2013-12-25 19:57:00,22.2,7.3,30.57,SSW,205,0.0,0.0,52,0.00,,,0.00,0,HR-IXP-WINDi_r2_v1.2,2013-12-26 00:57:00,
2013-12-25 20:02:00,22.1,7.2,30.57,SSW,205,0.0,0.0,52,0.00,,,0.00,0,HR-IXP-WINDi_r2_v1.2,2013-12-26 01:02:00,
2013-12-25 20:08:00,22.1,7.2,30.57,SSW,205,0.0,0.0,52,0.00,,,0.00,0,HR-IXP-WINDi_r2_v1.2,2013-12-26 01:08:00,
2013-12-25 20:13:00,22.0,7.1,30.57,SSW,205,0.0,1.0,52,0.00,,,0.00,0,HR-IXP-WINDi_r2_v1.2,2013-12-26 01:13:00,
2013-12-25 20:18:00,22.0,7.5,30.57,SSW,205,0.0,1.0,53,0.00,,,0.00,0,HR-IXP-WINDi_r2_v1.2,2013-12-26 01:18:00,
2013-12-25 20:23:00,21.9,7.4,30.57,SSW,205,0.0,0.0,53,0.00,,,0.00,0,HR-IXP-WINDi_r2_v1.2,2013-12-26 01:23:00,
2013-12-25 20:29:00,21.8,7.4,30.57,SSW,205,0.0,1.0,53,0.00,,,0.00,0,HR-IXP-WINDi_r2_v1.2,2013-12-26 01:29:00,
2013-12-25 20:34:00,21.8,7.4,30.57,WSW,252,0.0,1.0,53,0.00,,,0.00,0,HR-IXP-WINDi_r2_v1.2,2013-12-26 01:34:00,
2013-12-25 20:39:00,21.7,7.7,30.58,WSW,252,0.0,1.0,54,0.00,,,0.00,0,HR-IXP-WINDi_r2_v1.2,2013-12-26 01:39:00,
2013-12-25 20:44:00,21.7,7.3,30.57,WSW,252,0.0,0.0,53,0.00,,,0.00,0,HR-IXP-WINDi_r2_v1.2,2013-12-26 01:44:00,
2013-12-25 20:49:00,21.7,7.7,30.57,WSW,252,0.0,0.0,54,0.00,,,0.00,0,HR-IXP-WINDi_r2_v1.2,2013-12-26 01:49:00,
2013-12-25 20:54:00,21.6,7.6,30.57,WSW,252,0.0,0.0,54,0.00,,,0.00,0,HR-IXP-WINDi_r2_v1.2,2013-12-26 01:54:00,
2013-12-25 20:59:00,21.6,7.6,30.57,WSW,252,0.0,0.0,54,0.00,,,0.00,0,HR-IXP-WINDi_r2_v1.2,2013-12-26 01:59:00,
2013-12-25 21:05:00,21.5,7.9,30.57,WSW,252,0.0,0.0,55,0.00,,,0.00,0,HR-IXP-WINDi_r2_v1.2,2013-12-26 02:05:00,
2013-12-25 21:10:00,21.4,7.8,30.57,WSW,252,0.0,0.0,55,0.00,,,0.00,0,HR-IXP-WINDi_r2_v1.2,2013-12-26 02:10:00,
2013-12-25 21:16:00,21.3,8.1,30.57,WSW,252,0.0,0.0,56,0.00,,,0.00,0,HR-IXP-WINDi_r2_v1.2,2013-12-26 02:16:00,
2013-12-25 21:21:00,21.3,8.1,30.56,WSW,252,0.0,0.0,56,0.00,,,0.00,0,HR-IXP-WINDi_r2_v1.2,2013-12-26 02:21:00,
2013-12-25 21:26:00,21.3,8.1,30.56,WSW,252,0.0,0.0,56,0.00,,,0.00,0,HR-IXP-WINDi_r2_v1.2,2013-12-26 02:26:00,
2013-12-25 21:31:00,21.2,8.0,30.56,WSW,252,0.0,0.0,56,0.00,,,0.00,0,HR-IXP-WINDi_r2_v1.2,2013-12-26 02:31:00,
2013-12-25 21:36:00,21.1,8.3,30.56,WSW,252,0.0,0.0,57,0.00,,,0.00,0,HR-IXP-WINDi_r2_v1.2,2013-12-26 02:36:00,
2013-12-25 21:42:00,21.1,8.3,30.56,WSW,252,0.0,0.0,57,0.00,,,0.00,0,HR-IXP-WINDi_r2_v1.2,2013-12-26 02:42:00,
2013-12-25 21:47:00,21.1,8.3,30.56,WSW,252,0.0,0.0,57,0.00,,,0.00,0,HR-IXP-WINDi_r2_v1.2,2013-12-26 02:47:00,
2013-12-25 21:52:00,21.0,8.2,30.56,WSW,252,0.0,0.0,57,0.00,,,0.00,0,HR-IXP-WINDi_r2_v1.2,2013-12-26 02:52:00,
2013-12-25 21:57:00,21.0,8.2,30.56,WSW,252,0.0,0.0,57,0.00,,,0.00,0,HR-IXP-WINDi_r2_v1.2,2013-12-26 02:57:00,
2013-12-25 22:02:00,20.9,8.1,30.56,WSW,252,0.0,0.0,57,0.00,,,0.00,0,HR-IXP-WINDi_r2_v1.2,2013-12-26 03:02:00,
2013-12-25 22:07:00,20.9,8.5,30.56,WSW,252,0.0,0.0,58,0.00,,,0.00,0,HR-IXP-WINDi_r2_v1.2,2013-12-26 03:07:00,
2013-12-25 22:12:00,20.9,8.5,30.56,WSW,252,0.0,0.0,58,0.00,,,0.00,0,HR-IXP-WINDi_r2_v1.2,2013-12-26 03:12:00,
2013-12-25 22:17:00,20.8,8.4,30.56,WSW,252,0.0,0.0,58,0.00,,,0.00,0,HR-IXP-WINDi_r2_v1.2,2013-12-26 03:17:00,
2013-12-25 22:22:00,20.8,8.4,30.56,WSW,252,0.0,1.0,58,0.00,,,0.00,0,HR-IXP-WINDi_r2_v1.2,2013-12-26 03:22:00,
2013-12-25 22:28:00,20.8,8.4,30.56,WSW,252,0.0,1.0,58,0.00,,,0.00,0,HR-IXP-WINDi_r2_v1.2,2013-12-26 03:28:00,
2013-12-25 22:33:00,20.8,8.4,30.56,WSW,252,0.0,0.0,58,0.00,,,0.00,0,HR-IXP-WINDi_r2_v1.2,2013-12-26 03:33:00,
2013-12-25 22:38:00,20.7,8.7,30.55,WSW,252,0.0,0.0,59,0.00,,,0.00,0,HR-IXP-WINDi_r2_v1.2,2013-12-26 03:38:00,
2013-12-25 22:43:00,20.7,8.7,30.55,WSW,252,0.0,0.0,59,0.00,,,0.00,0,HR-IXP-WINDi_r2_v1.2,2013-12-26 03:43:00,
2013-12-25 22:48:00,20.7,9.1,30.55,WSW,252,0.0,0.0,60,0.00,,,0.00,0,HR-IXP-WINDi_r2_v1.2,2013-12-26 03:48:00,
2013-12-25 22:53:00,20.6,9.0,30.55,WSW,252,0.0,0.0,60,0.00,,,0.00,0,HR-IXP-WINDi_r2_v1.2,2013-12-26 03:53:00,
2013-12-25 22:58:00,20.6,9.0,30.55,WSW,252,0.0,0.0,60,0.00,,,0.00,0,HR-IXP-WINDi_r2_v1.2,2013-12-26 03:58:00,
2013-12-25 23:04:00,20.5,8.9,30.55,WSW,252,0.0,0.0,60,0.00,,,0.00,0,HR-IXP-WINDi_r2_v1.2,2013-12-26 04:04:00,
2013-12-25 23:09:00,20.4,8.8,30.54,WSW,252,0.0,0.0,60,0.00,,,0.00,0,HR-IXP-WINDi_r2_v1.2,2013-12-26 04:09:00,
2013-12-25 23:14:00,20.4,9.5,30.55,WSW,252,0.0,0.0,62,0.00,,,0.00,0,HR-IXP-WINDi_r2_v1.2,2013-12-26 04:14:00,
2013-12-25 23:19:00,20.3,9.8,30.54,WSW,252,0.0,0.0,63,0.00,,,0.00,0,HR-IXP-WINDi_r2_v1.2,2013-12-26 04:19:00,
2013-12-25 23:25:00,20.3,10.1,30.54,WSW,252,0.0,0.0,64,0.00,,,0.00,0,HR-IXP-WINDi_r2_v1.2,2013-12-26 04:25:00,
2013-12-25 23:30:00,20.2,10.0,30.54,WSW,252,0.0,0.0,64,0.00,,,0.00,0,HR-IXP-WINDi_r2_v1.2,2013-12-26 04:30:00,
2013-12-25 23:35:00,20.2,10.0,30.54,WSW,252,0.0,0.0,64,0.00,,,0.00,0,HR-IXP-WINDi_r2_v1.2,2013-12-26 04:35:00,
2013-12-25 23:40:00,20.2,10.0,30.54,WSW,252,0.0,0.0,64,0.00,,,0.00,0,HR-IXP-WINDi_r2_v1.2,2013-12-26 04:40:00,
2013-12-25 23:46:00,20.1,9.9,30.54,WSW,252,0.0,0.0,64,0.00,,,0.00,0,HR-IXP-WINDi_r2_v1.2,2013-12-26 04:46:00,
2013-12-25 23:51:00,20.0,9.8,30.54,WSW,252,0.0,0.0,64,0.00,,,0.00,0,HR-IXP-WINDi_r2_v1.2,2013-12-26 04:51:00,
2013-12-25 23:56:00,20.0,10.2,30.54,WSW,252,0.0,0.0,65,0.00,,,0.00,0,HR-IXP-WINDi_r2_v1.2,2013-12-26 04:56:00,